{"data":{"norad_id":59633,"intl_designator":"2024-082C","name":"STARLINK-31541","alt_names":[],"object_type":"PAYLOAD","status":"ACTIVE","operator":null,"country":"US","launch_date":"2024-05-03","launch_site_code":"AFETR","launch_vehicle":null,"mission":null,"orbit_class":"UNKNOWN","rcs_meters":null,"size_class":null,"mass_kg":null,"dimensions":null,"purposes":["comms"],"wikipedia_slug":null,"has_3d_model":false,"image_url":null,"decayed_at":null,"tle_current":{"epoch":"2026-09-20T23:54:13.706208Z","epoch_age_seconds":125243,"freshness":"FRESH","line1":"1 59633U 24082C   26263.99599197  .00000321  00000+0  21178-4 0  9997","line2":"2 59633  43.0013 109.7028 0001241 274.9312  85.1398 15.27575511134957","mean_motion":15.27575511,"eccentricity":0.0001241,"inclination_deg":43.0013,"raan_deg":109.7028,"arg_perigee_deg":274.9312,"mean_anomaly_deg":85.1398,"bstar":2.1178e-5,"rev_number":13495,"period_min":94.26702573003,"perigee_km":482.21106289084,"apogee_km":483.91401261611,"semimajor_km":6861.1995377535,"source":"CELESTRAK","updated_at":"2026-09-22T09:00:49.017031Z"}}}